Retour au catalogue

ICEYE-X76

ActifScienceSSO
NORAD 68502·PAYLOAD·🇵🇱 Poland

Lancé Mar 30, 2026 depuis Vandenberg Space Force Base

Loading…

Prochains Passages (prochaines 24 heures)

TLE

FraisSource: Space-Track

Époque: Sep 14, 2026, 20:53 UTC

1 68502U 26067CQ  26257.87064858  .00000685  00000-0  73352-4 0  9993
2 68502  97.7722 214.8145 0003630  79.2283 280.9344 14.91852646 25097

Suivez ICEYE-X76 en temps réel avec AllMySat

Download on the App Store